Lexington Weather

Lexington, Massachusetts, USA

40°F
11/27/2020 2:43am 
  • Lexington Conditions: Fog, Overcast
  • Temperature: 39.6°F / 4.2°CColder 0.9°F than last hour.
  • Dew Point: 38.8°FDecreased 0.9°Fsince last hour.
  • Relative Humidity: 97
  • Wind: Calm, 10-min avg: Calm, gust: None
  • Barometer: 29.97 in Steady
  • Visibility: ¼ mile
  • Rain Today: 0.00 in
  •   
Southeast Middlesex County - Special Weather Statement
 - SEE ALL NEARBY ALERTS -

Regional Weather Roundup
for Boston / Norton, MA

        
000
ASUS41 KBOX 260904
RWRBOX

REGIONAL WEATHER ROUNDUP
NATIONAL WEATHER SERVICE BOSTON/NORTON MA
400 AM EST THU NOV 26 2020

NOTE:  "FAIR" INDICATES FEW OR NO CLOUDS BELOW 12,000 FEET WITH NO 
SIGNIFICANT WEATHER AND/OR OBSTRUCTIONS TO VISIBILITY.

MAZALL-261000-
EASTERN MASSACHUSETTS
  
CITY           SKY/WX    TMP DP  RH WIND       PRES   REMARKS
BOSTON         LGT RAIN  42  39  89 CALM      30.19F                  
BEVERLY        LGT RAIN  40  38  93 NE5       30.18F                  
LAWRENCE       RAIN      37  36  96 NE5       30.20F FOG              
BEDFORD        LGT RAIN  38  35  89 CALM      30.17F                  
BLUE HILL        N/A     46  45  96 SE10      30.15F                  
NORWOOD        CLOUDY    44  40  85 CALM      30.17F                  
MARSHFIELD     CLOUDY    48  48 100 CALM      30.18F                  
PLYMOUTH       CLOUDY    50  48  93 SE5       30.18F                  
TAUNTON        LGT RAIN  49  46  90 CALM      30.17F                  
NEW BEDFORD    CLOUDY    52  51  97 SE3       30.17F                  
$$

MAZALL-261000-
CAPE COD AND THE ISLANDS
  
CITY           SKY/WX    TMP DP  RH WIND       PRES   REMARKS
FALMOUTH       CLOUDY    50  50 100 SW6       30.19F                  
HYANNIS        CLOUDY    52  51  97 S3        30.19F                  
CHATHAM        CLOUDY    53  51  93 VRB3      30.21F                  
PROVINCETOWN   CLOUDY    50  49  96 SE6       30.20F                  
NANTUCKET      CLOUDY    54  51  90 SE8       30.21F                  
MARTHAS VNYRD  CLOUDY    55  53  93 SE6       30.18F                  
$$
 
MAZALL-261000-
CENTRAL AND WESTERN MASSACHUSETTS
  
CITY           SKY/WX    TMP DP  RH WIND       PRES   REMARKS
WORCESTER      LGT RAIN  45  43  93 SE6       30.13F VSB 1/2          
FITCHBURG      RAIN      35  33  92 CALM      30.17F FOG              
ORANGE         RAIN      40  40 100 CALM      30.12F FOG              
SPRINGFIELD    LGT RAIN  41  41  99 NW6       30.11F                  
WESTFIELD      LGT RAIN  38  38 100 VRB3      30.12F                  
NORTH ADAMS    LGT RAIN  44  42  93 SE10      30.07F FOG              
PITTSFIELD     LGT RAIN  41  41 100 CALM      30.05F FOG              
$$
 
RIZALL-261000-
RHODE ISLAND
  
CITY           SKY/WX    TMP DP  RH WIND       PRES   REMARKS
PROVIDENCE     LGT RAIN  49  47  93 CALM      30.17F                  
NEWPORT        LGT RAIN  54  52  93 SE7       30.16F                  
BLOCK ISLAND   CLOUDY    57  54  89 S13       30.15F                  
SMITHFIELD     LGT RAIN  48  48 100 SE7       30.15F                  
WESTERLY       CLOUDY    55  51  86 E6        30.15F                  
$$
 
CTZALL-261000-
CONNECTICUT
  
CITY           SKY/WX    TMP DP  RH WIND       PRES   REMARKS
BRADLEY INTL   LGT RAIN  40  38  93 N3        30.11F                  
HARTFORD       RAIN      43  40  89 E3        30.12F FOG              
BRIDGEPORT     LGT RAIN  53  51  93 E6        30.11F                  
DANBURY        LGT RAIN  50  49  96 SE8       30.09F                  
GROTON         LGT RAIN  55  53  93 E7        30.13F                  
NEW HAVEN      CLOUDY    54  52  93 E6        30.11F                  
CHESTER        LGT RAIN  52  52 100 SE3       30.13S                  
MERIDEN        RAIN      46  45  96 CALM      30.11F FOG              
WILLIMANTIC    LGT RAIN  45  44  97 CALM      30.14F                  
OXFORD         LGT RAIN  49  49 100 S7        30.10F                  
$$

MEZ002-015-021-024-NHZ003-005-008-011-012-014-VTZ005-008-261000-
NORTHERN NEW ENGLAND
  
CITY           SKY/WX    TMP DP  RH WIND       PRES   REMARKS
PORTLAND ME    LGT RAIN  34  33  96 CALM      30.21F                  
BANGOR ME      CLOUDY    31  30  96 CALM      30.23S FOG              
CONCORD NH     RAIN      33  31  92 CALM      30.17F FOG              
MANCHESTER NH  RAIN      35  33  92 NW3       30.17F FOG              
NASHUA NH      LGT RAIN  34  34 100 NW5       30.19S WCI  30          
PORTSMOUTH NH  LGT RAIN  37  35  94 CALM      30.19  FOG              
JAFFREY NH     RAIN      38  36  92 CALM      30.12F FOG              
KEENE NH       RAIN      35  34  96 CALM      30.13F FOG              
BURLINGTON VT  LGT RAIN  40  38  93 SE6       30.04F                  
MT. WASHINGTON LGT RAIN  34  34 100 W35         N/A  VSB 1/16WCI  19  
$$

NYZ052-076-261000-
EASTERN NEW YORK
  
CITY           SKY/WX    TMP DP  RH WIND       PRES   REMARKS
ALBANY         LGT RAIN  43  43 100 S6        30.04F                  
NEW YORK CITY  RAIN      57  52  83 S6        30.07F                  
$$
 
ANZALL-261000-
MARINE OBSERVATIONS
  
STATION/POSITION TIME  TEMP    WIND        PRES    VSBY  WAVE
                       AIR SEA DIR/SP/G                  HT/PER
                 (UTC) (F)     (DEG/KT/KT) (MB)    (MI)  (FT/S)
BOSTON BUOY      0850   50 50  140/  6/  8 1022.5F         2/11
BUZZARDS BAY     0800          160/ 12/ 13 1022.9F
NANTUCKET SOUND  0850      51  150/  6/  8   N/A           1/ 6
MASS BAY-STELLWA NOT AVBL
ISLE OF SHOALS   0800   42      60/  7/  8 1022.4F
S OF BLOCK IS    0826      57                N/A           4/ 6
$$

......................KEY.........................
  SKY/WX - SKY CONDITION/PRESENT WEATHER
  TMP    - TEMPERATURE IN FAHRENHEIT
  DWPT   - DEWPOINT IN FAHRENHEIT
  RH     - RELATIVE HUMIDITY IN PERCENT
  WIND   - DIRECTION AND SPEED IN MPH
  PRES   - MEAN SEA LEVEL PRESSURE IN INCHES OF HG
  WCI    - WIND CHILL INDEX
  VSB    - VISIBILITY IN MILES
  HX     - HEAT INDEX
  TC     - TEMPERATURE IN CELSIUS
  VRB    - VARIABLE WIND DIRECTION
  N/A    - NOT AVAILABLE
  
      

Other recent Regional Weather Roundups

Thu Nov 26, 11:04pm

Thu Nov 26, 10:04pm

Thu Nov 26, 9:04pm

Thu Nov 26, 8:04pm

Thu Nov 26, 7:04pm

Thu Nov 26, 6:04pm

Thu Nov 26, 5:04pm

Thu Nov 26, 4:04pm

Thu Nov 26, 2:04pm

Thu Nov 26, 1:04pm

Thu Nov 26, 12:04pm

Thu Nov 26, 11:04am

Thu Nov 26, 10:04am

Thu Nov 26, 9:04am

Thu Nov 26, 8:04am

Thu Nov 26, 7:04am

Thu Nov 26, 6:04am

Thu Nov 26, 5:04am

Thu Nov 26, 3:04am

Thu Nov 26, 2:04am

Thu Nov 26, 1:04am

Thu Nov 26, 12:04am

Wed Nov 25, 11:04pm

Wed Nov 25, 10:04pm

Wed Nov 25, 9:04pm

Wed Nov 25, 8:04pm

Wed Nov 25, 7:04pm

Wed Nov 25, 6:04pm

Wed Nov 25, 5:04pm

Wed Nov 25, 4:04pm

Wed Nov 25, 3:05pm

Wed Nov 25, 2:04pm

Wed Nov 25, 1:04pm

Wed Nov 25, 12:05pm

Wed Nov 25, 11:04am

Wed Nov 25, 10:04am

Wed Nov 25, 9:04am

Wed Nov 25, 8:04am

Wed Nov 25, 7:04am

Wed Nov 25, 6:04am

Wed Nov 25, 5:04am

Wed Nov 25, 4:04am

Wed Nov 25, 3:04am

Wed Nov 25, 2:04am

Wed Nov 25, 1:04am

Wed Nov 25, 12:04am

Tue Nov 24, 11:04pm

Tue Nov 24, 10:04pm

Tue Nov 24, 9:04pm

Tue Nov 24, 8:04pm

Tue Nov 24, 7:04pm

Tue Nov 24, 6:04pm

Tue Nov 24, 5:04pm

Tue Nov 24, 4:05pm

Tue Nov 24, 3:05pm

Tue Nov 24, 2:05pm

Tue Nov 24, 1:05pm

Tue Nov 24, 12:04pm

Tue Nov 24, 11:04am

Tue Nov 24, 10:04am

Tue Nov 24, 9:04am

Tue Nov 24, 8:04am

Tue Nov 24, 7:04am

Tue Nov 24, 6:04am

Tue Nov 24, 5:04am

Tue Nov 24, 4:05am

Tue Nov 24, 3:04am

Tue Nov 24, 2:04am

Tue Nov 24, 1:04am

Tue Nov 24, 12:05am

Mon Nov 23, 11:04pm

Mon Nov 23, 10:04pm

Mon Nov 23, 9:04pm

Mon Nov 23, 8:04pm

Mon Nov 23, 7:04pm

Mon Nov 23, 6:04pm

Mon Nov 23, 5:04pm

Mon Nov 23, 4:04pm

Mon Nov 23, 3:04pm

Mon Nov 23, 2:04pm

Mon Nov 23, 1:04pm

Mon Nov 23, 12:04pm

Mon Nov 23, 11:04am

Mon Nov 23, 10:04am

Mon Nov 23, 9:04am

Mon Nov 23, 8:05am

Mon Nov 23, 7:04am

Mon Nov 23, 6:04am

Mon Nov 23, 5:04am

Mon Nov 23, 4:04am

Mon Nov 23, 3:04am

Mon Nov 23, 2:04am

Mon Nov 23, 1:04am

Mon Nov 23, 12:05am

Sun Nov 22, 11:04pm

Sun Nov 22, 10:04pm

Sun Nov 22, 9:04pm

Sun Nov 22, 8:05pm

Sun Nov 22, 7:04pm

Sun Nov 22, 6:04pm

Sun Nov 22, 5:04pm

Sun Nov 22, 4:04pm

Sun Nov 22, 3:04pm

Sun Nov 22, 2:04pm

Sun Nov 22, 1:05pm

Sun Nov 22, 12:04pm

Sun Nov 22, 11:04am

Sun Nov 22, 10:05am

Sun Nov 22, 9:04am

Sun Nov 22, 8:04am

Sun Nov 22, 7:04am

Sun Nov 22, 6:04am

Sun Nov 22, 5:04am

Sun Nov 22, 4:04am

Sun Nov 22, 3:04am

Sun Nov 22, 2:04am

Sun Nov 22, 1:04am

Sun Nov 22, 12:04am

Sat Nov 21, 11:04pm

Sat Nov 21, 10:04pm

Sat Nov 21, 9:04pm

Sat Nov 21, 8:05pm

Sat Nov 21, 7:04pm

Sat Nov 21, 6:04pm

Sat Nov 21, 5:04pm

Sat Nov 21, 4:05pm

Sat Nov 21, 3:04pm

Sat Nov 21, 2:04pm

Sat Nov 21, 1:05pm

Sat Nov 21, 12:04pm

Sat Nov 21, 11:04am

Sat Nov 21, 10:04am

Sat Nov 21, 9:04am

Sat Nov 21, 8:04am

Sat Nov 21, 7:04am

Sat Nov 21, 6:04am

Sat Nov 21, 5:04am

Sat Nov 21, 4:04am

Sat Nov 21, 3:04am

Sat Nov 21, 2:04am

Sat Nov 21, 1:04am

Sat Nov 21, 12:04am

Fri Nov 20, 11:04pm

Fri Nov 20, 10:04pm

Fri Nov 20, 9:04pm

Fri Nov 20, 8:04pm

Fri Nov 20, 7:04pm

Fri Nov 20, 6:04pm

Fri Nov 20, 5:04pm

Fri Nov 20, 4:05pm

Fri Nov 20, 3:05pm

Fri Nov 20, 2:04pm

Fri Nov 20, 1:04pm

Fri Nov 20, 12:04pm

Fri Nov 20, 11:04am

Fri Nov 20, 10:04am

Fri Nov 20, 9:04am

Fri Nov 20, 8:04am

Fri Nov 20, 7:04am

Fri Nov 20, 6:04am

Fri Nov 20, 5:04am

Fri Nov 20, 4:04am

Fri Nov 20, 3:04am

Meta data:

ID: 10eff26f-8d83-4932-89aa-4bfbf6609933
Link: https://api.weather.gov/products/10eff26f-8d83-4932-89aa-4bfbf6609933